Year,Month,Day,Hour,Minute,Value (Times are PST for temperature in C)
2022,03,29,00,00,8.80
2022,03,29,00,01,8.80
2022,03,29,00,02,8.70
2022,03,29,00,03,8.70
2022,03,29,00,04,8.70
2022,03,29,00,05,8.60
2022,03,29,00,06,8.60
2022,03,29,00,07,8.60
2022,03,29,00,08,8.60
2022,03,29,00,09,8.50
2022,03,29,00,10,8.50
2022,03,29,00,11,8.50
2022,03,29,00,12,8.50
2022,03,29,00,13,8.50
2022,03,29,00,14,8.50
2022,03,29,00,15,8.50
2022,03,29,00,16,8.60
2022,03,29,00,17,8.60
2022,03,29,00,18,8.50
2022,03,29,00,19,8.50
2022,03,29,00,20,8.50
2022,03,29,00,21,8.50
2022,03,29,00,22,8.40
2022,03,29,00,23,8.40
2022,03,29,00,24,8.40
2022,03,29,00,25,8.30
2022,03,29,00,26,8.30
2022,03,29,00,27,8.30
2022,03,29,00,28,8.20
2022,03,29,00,29,8.20
2022,03,29,00,30,8.20
2022,03,29,00,31,8.20
2022,03,29,00,32,8.20
2022,03,29,00,33,8.10
2022,03,29,00,34,8.10
2022,03,29,00,35,8.10
2022,03,29,00,36,8.10
2022,03,29,00,37,8.00
2022,03,29,00,38,8.00
2022,03,29,00,39,8.00
2022,03,29,00,40,8.00
2022,03,29,00,41,7.90
2022,03,29,00,42,7.90
2022,03,29,00,43,7.90
2022,03,29,00,44,7.80
2022,03,29,00,45,7.80
2022,03,29,00,46,7.80
2022,03,29,00,47,7.80
2022,03,29,00,48,7.80
2022,03,29,00,49,7.80
2022,03,29,00,50,7.80
2022,03,29,00,51,7.80
2022,03,29,00,52,7.80
2022,03,29,00,53,7.80
2022,03,29,00,54,7.80
2022,03,29,00,55,7.80
2022,03,29,00,56,7.80
2022,03,29,00,57,7.80
2022,03,29,00,58,7.80
2022,03,29,00,59,7.80
2022,03,29,01,00,7.80
2022,03,29,01,01,7.80
2022,03,29,01,02,7.80
2022,03,29,01,03,7.80
2022,03,29,01,04,7.80
2022,03,29,01,05,7.80
2022,03,29,01,06,7.80
2022,03,29,01,07,7.80
2022,03,29,01,08,7.80
2022,03,29,01,09,7.80
2022,03,29,01,10,7.80
2022,03,29,01,11,7.80
2022,03,29,01,12,7.80
2022,03,29,01,13,7.70
2022,03,29,01,14,7.70
2022,03,29,01,15,7.70
2022,03,29,01,16,7.70
2022,03,29,01,17,7.70
2022,03,29,01,18,7.60
2022,03,29,01,19,7.60
2022,03,29,01,20,7.60
2022,03,29,01,21,7.60
2022,03,29,01,22,7.50
2022,03,29,01,23,7.50
2022,03,29,01,24,7.50
2022,03,29,01,25,7.40
2022,03,29,01,26,7.40
2022,03,29,01,27,7.40
2022,03,29,01,28,7.30
2022,03,29,01,29,7.30
2022,03,29,01,30,7.30
2022,03,29,01,31,7.30
2022,03,29,01,32,7.20
2022,03,29,01,33,7.20
2022,03,29,01,34,7.20
2022,03,29,01,35,7.20
2022,03,29,01,36,7.10
2022,03,29,01,37,7.10
2022,03,29,01,38,7.10
2022,03,29,01,39,7.00
2022,03,29,01,40,7.00
2022,03,29,01,41,6.90
2022,03,29,01,42,6.90
2022,03,29,01,43,6.90
2022,03,29,01,44,6.80
2022,03,29,01,45,6.80
2022,03,29,01,46,6.70
2022,03,29,01,47,6.70
2022,03,29,01,48,6.60
2022,03,29,01,49,6.60
2022,03,29,01,50,6.60
2022,03,29,01,51,6.50
2022,03,29,01,52,6.50
2022,03,29,01,53,6.50
2022,03,29,01,54,6.50
2022,03,29,01,55,6.50
2022,03,29,01,56,6.50
2022,03,29,01,57,6.50
2022,03,29,01,58,6.50
2022,03,29,01,59,6.50
2022,03,29,02,00,6.60
2022,03,29,02,01,6.60
2022,03,29,02,02,6.60
2022,03,29,02,03,6.60
2022,03,29,02,04,6.60
2022,03,29,02,05,6.60
2022,03,29,02,06,6.60
2022,03,29,02,07,6.60
2022,03,29,02,08,6.60
2022,03,29,02,09,6.60
2022,03,29,02,10,6.60
2022,03,29,02,11,6.60
2022,03,29,02,12,6.70
2022,03,29,02,13,6.70
2022,03,29,02,14,6.70
2022,03,29,02,15,6.70
2022,03,29,02,16,6.80
2022,03,29,02,17,6.80
2022,03,29,02,18,6.80
2022,03,29,02,19,6.80
2022,03,29,02,20,6.80
2022,03,29,02,21,6.80
2022,03,29,02,22,6.80
2022,03,29,02,23,6.80
2022,03,29,02,24,6.80
2022,03,29,02,25,6.80
2022,03,29,02,26,6.80
2022,03,29,02,27,6.80
2022,03,29,02,28,6.80
2022,03,29,02,29,6.80
2022,03,29,02,30,6.80
2022,03,29,02,31,6.80
2022,03,29,02,32,6.80
2022,03,29,02,33,6.80
2022,03,29,02,34,6.80
2022,03,29,02,35,6.80
2022,03,29,02,36,6.80
2022,03,29,02,37,6.70
2022,03,29,02,38,6.70
2022,03,29,02,39,6.70
2022,03,29,02,40,6.70
2022,03,29,02,41,6.80
2022,03,29,02,42,6.80
2022,03,29,02,43,6.80
2022,03,29,02,44,6.80
2022,03,29,02,45,6.90
2022,03,29,02,46,6.90
2022,03,29,02,47,6.80
2022,03,29,02,48,6.80
2022,03,29,02,49,6.80
2022,03,29,02,50,6.80
2022,03,29,02,51,6.80
2022,03,29,02,52,6.70
2022,03,29,02,53,6.60
2022,03,29,02,54,6.50
2022,03,29,02,55,6.40
2022,03,29,02,56,6.40
2022,03,29,02,57,6.30
2022,03,29,02,58,6.30
2022,03,29,02,59,6.30
2022,03,29,03,00,6.30
2022,03,29,03,01,6.40
2022,03,29,03,02,6.40
2022,03,29,03,03,6.50
2022,03,29,03,04,6.50
2022,03,29,03,05,6.60
2022,03,29,03,06,6.60
2022,03,29,03,07,6.60
2022,03,29,03,08,6.60
2022,03,29,03,09,6.60
2022,03,29,03,10,6.60
2022,03,29,03,11,6.60
2022,03,29,03,12,6.60
2022,03,29,03,13,6.50
2022,03,29,03,14,6.50
2022,03,29,03,15,6.50
2022,03,29,03,16,6.50
2022,03,29,03,17,6.40
2022,03,29,03,18,6.40
2022,03,29,03,19,6.30
2022,03,29,03,20,6.30
2022,03,29,03,21,6.30
2022,03,29,03,22,6.30
2022,03,29,03,23,6.20
2022,03,29,03,24,6.20
2022,03,29,03,25,6.10
2022,03,29,03,26,6.10
2022,03,29,03,27,6.10
2022,03,29,03,28,6.10
2022,03,29,03,29,6.10
2022,03,29,03,30,6.10
2022,03,29,03,31,6.00
2022,03,29,03,32,6.00
2022,03,29,03,33,5.90
2022,03,29,03,34,5.80
2022,03,29,03,35,5.70
2022,03,29,03,36,5.70
2022,03,29,03,37,5.70
2022,03,29,03,38,5.60
2022,03,29,03,39,5.60
2022,03,29,03,40,5.60
2022,03,29,03,41,5.60
2022,03,29,03,42,5.60
2022,03,29,03,43,5.50
2022,03,29,03,44,5.50
2022,03,29,03,45,5.50
2022,03,29,03,46,5.40
2022,03,29,03,47,5.40
2022,03,29,03,48,5.40
2022,03,29,03,49,5.50
2022,03,29,03,50,5.50
2022,03,29,03,51,5.60
2022,03,29,03,52,5.60
2022,03,29,03,53,5.60
2022,03,29,03,54,5.60
2022,03,29,03,55,5.60
2022,03,29,03,56,5.50
2022,03,29,03,57,5.50
2022,03,29,03,58,5.40
2022,03,29,03,59,5.30
2022,03,29,04,00,5.30
2022,03,29,04,01,5.20
2022,03,29,04,02,5.20
2022,03,29,04,03,5.10
2022,03,29,04,04,5.10
2022,03,29,04,05,5.10
2022,03,29,04,06,5.10
2022,03,29,04,07,5.10
2022,03,29,04,08,5.10
2022,03,29,04,09,5.10
2022,03,29,04,10,5.10
2022,03,29,04,11,5.00
2022,03,29,04,12,5.00
2022,03,29,04,13,5.00
2022,03,29,04,14,4.90
2022,03,29,04,15,4.90
2022,03,29,04,16,4.90
2022,03,29,04,17,4.80
2022,03,29,04,18,4.80
2022,03,29,04,19,4.80
2022,03,29,04,20,4.80
2022,03,29,04,21,4.80
2022,03,29,04,22,4.80
2022,03,29,04,23,4.80
2022,03,29,04,24,4.60
2022,03,29,04,25,4.60
2022,03,29,04,26,4.50
2022,03,29,04,27,4.50
2022,03,29,04,28,4.50
2022,03,29,04,29,4.40
2022,03,29,04,30,4.40
2022,03,29,04,31,4.40
2022,03,29,04,32,4.30
2022,03,29,04,33,4.30
2022,03,29,04,34,4.30
2022,03,29,04,35,4.30
2022,03,29,04,36,4.30
2022,03,29,04,37,4.30
2022,03,29,04,38,4.30
2022,03,29,04,39,4.20
2022,03,29,04,40,4.20
2022,03,29,04,41,4.20
2022,03,29,04,42,4.20
2022,03,29,04,43,4.20
2022,03,29,04,44,4.20
2022,03,29,04,45,4.20
2022,03,29,04,46,4.20
2022,03,29,04,47,4.20
2022,03,29,04,48,4.20
2022,03,29,04,49,4.20
2022,03,29,04,50,4.20
2022,03,29,04,51,4.20
2022,03,29,04,52,4.20
2022,03,29,04,53,4.20
2022,03,29,04,54,4.20
2022,03,29,04,55,4.20
2022,03,29,04,56,4.20
2022,03,29,04,57,4.30
2022,03,29,04,58,4.30
2022,03,29,04,59,4.20
2022,03,29,05,00,4.20
2022,03,29,05,01,4.30
2022,03,29,05,02,4.30
2022,03,29,05,03,4.30
2022,03,29,05,04,4.40
2022,03,29,05,05,4.40
2022,03,29,05,06,4.40
2022,03,29,05,07,4.40
2022,03,29,05,08,4.40
2022,03,29,05,09,4.40
2022,03,29,05,10,4.40
2022,03,29,05,11,4.40
2022,03,29,05,12,4.40
2022,03,29,05,13,4.40
2022,03,29,05,14,4.40
2022,03,29,05,15,4.40
2022,03,29,05,16,4.40
2022,03,29,05,17,4.40
2022,03,29,05,18,4.40
2022,03,29,05,19,4.30
2022,03,29,05,20,4.30
2022,03,29,05,21,4.30
2022,03,29,05,22,4.30
2022,03,29,05,23,4.30
2022,03,29,05,24,4.30
2022,03,29,05,25,4.30
2022,03,29,05,26,4.30
2022,03,29,05,27,4.30
2022,03,29,05,28,4.30
2022,03,29,05,29,4.30
2022,03,29,05,30,4.30
2022,03,29,05,31,4.20
2022,03,29,05,32,4.20
2022,03,29,05,33,4.20
2022,03,29,05,34,4.20
2022,03,29,05,35,4.20
2022,03,29,05,36,4.20
2022,03,29,05,37,4.20
2022,03,29,05,38,4.20
2022,03,29,05,39,4.20
2022,03,29,05,40,4.20
2022,03,29,05,41,4.20
2022,03,29,05,42,4.20
2022,03,29,05,43,4.20
2022,03,29,05,44,4.20
2022,03,29,05,45,4.20
2022,03,29,05,46,4.10
2022,03,29,05,47,4.10
2022,03,29,05,48,4.10
2022,03,29,05,49,4.10
2022,03,29,05,50,4.00
2022,03,29,05,51,4.00
2022,03,29,05,52,4.00
2022,03,29,05,53,4.00
2022,03,29,05,54,3.90
2022,03,29,05,55,3.90
2022,03,29,05,56,3.90
2022,03,29,05,57,3.90
2022,03,29,05,58,3.90
2022,03,29,05,59,3.90
2022,03,29,06,00,3.90
2022,03,29,06,01,3.90
2022,03,29,06,02,3.90
2022,03,29,06,03,3.90
2022,03,29,06,04,3.90
2022,03,29,06,05,3.90
2022,03,29,06,06,4.00
2022,03,29,06,07,3.90
2022,03,29,06,08,4.00
2022,03,29,06,09,3.90
2022,03,29,06,10,3.90
2022,03,29,06,11,3.90
2022,03,29,06,12,3.90
2022,03,29,06,13,3.90
2022,03,29,06,14,3.80
2022,03,29,06,15,3.80
2022,03,29,06,16,3.80
2022,03,29,06,17,3.80
2022,03,29,06,18,3.80
2022,03,29,06,19,3.70
2022,03,29,06,20,3.70
2022,03,29,06,21,3.70
2022,03,29,06,22,3.70
2022,03,29,06,23,3.70
2022,03,29,06,24,3.70
2022,03,29,06,25,3.70
2022,03,29,06,26,3.60
2022,03,29,06,27,3.60
2022,03,29,06,28,3.60
2022,03,29,06,29,3.60
2022,03,29,06,30,3.60
2022,03,29,06,31,3.50
2022,03,29,06,32,3.50
2022,03,29,06,33,3.50
2022,03,29,06,34,3.50
2022,03,29,06,35,3.50
2022,03,29,06,36,3.50
2022,03,29,06,37,3.50
2022,03,29,06,38,3.50
2022,03,29,06,39,3.50
2022,03,29,06,40,3.40
2022,03,29,06,41,3.40
2022,03,29,06,42,3.40
2022,03,29,06,43,3.40
2022,03,29,06,44,3.40
2022,03,29,06,45,3.40
2022,03,29,06,46,3.40
2022,03,29,06,47,3.40
2022,03,29,06,48,3.40
2022,03,29,06,49,3.40
2022,03,29,06,50,3.40
2022,03,29,06,51,3.40
2022,03,29,06,52,3.30
2022,03,29,06,53,3.30
2022,03,29,06,54,3.30
2022,03,29,06,55,3.30
2022,03,29,06,56,3.30
2022,03,29,06,57,3.30
2022,03,29,06,58,3.30
2022,03,29,06,59,3.30
2022,03,29,07,00,3.30
2022,03,29,07,01,3.30
2022,03,29,07,02,3.30
2022,03,29,07,03,3.30
2022,03,29,07,04,3.30
2022,03,29,07,05,3.30
2022,03,29,07,06,3.30
2022,03,29,07,07,3.30
2022,03,29,07,08,3.30
2022,03,29,07,09,3.30
2022,03,29,07,10,3.30
2022,03,29,07,11,3.30
2022,03,29,07,12,3.20
2022,03,29,07,13,3.20
2022,03,29,07,14,3.20
2022,03,29,07,15,3.20
2022,03,29,07,16,3.20
2022,03,29,07,17,3.20
2022,03,29,07,18,3.20
2022,03,29,07,19,3.20
2022,03,29,07,20,3.20
2022,03,29,07,21,3.20
2022,03,29,07,22,3.20
2022,03,29,07,23,3.20
2022,03,29,07,24,3.20
2022,03,29,07,25,3.20
2022,03,29,07,26,3.30
2022,03,29,07,27,3.30
2022,03,29,07,28,3.30
2022,03,29,07,29,3.30
2022,03,29,07,30,3.30
2022,03,29,07,31,3.40
2022,03,29,07,32,3.30
2022,03,29,07,33,3.40
2022,03,29,07,34,3.40
2022,03,29,07,35,3.40
2022,03,29,07,36,3.40
2022,03,29,07,37,3.40
2022,03,29,07,38,3.40
2022,03,29,07,39,3.40
2022,03,29,07,40,3.50
2022,03,29,07,41,3.50
2022,03,29,07,42,3.50
2022,03,29,07,43,3.50
2022,03,29,07,44,3.60
2022,03,29,07,45,3.60
2022,03,29,07,46,3.60
2022,03,29,07,47,3.60
2022,03,29,07,48,3.60
2022,03,29,07,49,3.60
2022,03,29,07,50,3.60
2022,03,29,07,51,3.70
2022,03,29,07,52,3.70
2022,03,29,07,53,3.70
2022,03,29,07,54,3.70
2022,03,29,07,55,3.80
2022,03,29,07,56,3.80
2022,03,29,07,57,3.80
2022,03,29,07,58,3.80
2022,03,29,07,59,3.90
2022,03,29,08,00,3.90
2022,03,29,08,01,4.00
2022,03,29,08,02,4.00
2022,03,29,08,03,4.10
2022,03,29,08,04,4.20
2022,03,29,08,05,4.20
2022,03,29,08,06,4.30
2022,03,29,08,07,4.30
2022,03,29,08,08,4.40
2022,03,29,08,09,4.40
2022,03,29,08,10,4.50
2022,03,29,08,11,4.50
2022,03,29,08,12,4.60
2022,03,29,08,13,4.60
2022,03,29,08,14,4.60
2022,03,29,08,15,4.70
2022,03,29,08,16,4.70
2022,03,29,08,17,4.80
2022,03,29,08,18,4.80
2022,03,29,08,19,4.80
2022,03,29,08,20,4.90
2022,03,29,08,21,4.90
2022,03,29,08,22,4.90
2022,03,29,08,23,4.90
2022,03,29,08,24,4.90
2022,03,29,08,25,5.00
2022,03,29,08,26,5.00
2022,03,29,08,27,5.00
2022,03,29,08,28,5.10
2022,03,29,08,29,5.10
2022,03,29,08,30,5.20
2022,03,29,08,31,5.20
2022,03,29,08,32,5.30
2022,03,29,08,33,5.30
2022,03,29,08,34,5.40
2022,03,29,08,35,5.40
2022,03,29,08,36,5.50
2022,03,29,08,37,5.50
2022,03,29,08,38,5.60
2022,03,29,08,39,5.60
2022,03,29,08,40,5.70
2022,03,29,08,41,5.70
2022,03,29,08,42,5.80
2022,03,29,08,43,5.80
2022,03,29,08,44,5.90
2022,03,29,08,45,5.90
2022,03,29,08,46,5.90
2022,03,29,08,47,6.00
2022,03,29,08,48,6.10
2022,03,29,08,49,6.10
2022,03,29,08,50,6.20
2022,03,29,08,51,6.20
2022,03,29,08,52,6.20
2022,03,29,08,53,6.20
2022,03,29,08,54,6.20
2022,03,29,08,55,6.20
2022,03,29,08,56,6.20
2022,03,29,08,57,6.30
2022,03,29,08,58,6.20
2022,03,29,08,59,6.30
2022,03,29,09,00,6.30
2022,03,29,09,01,6.30
2022,03,29,09,02,6.30
2022,03,29,09,03,6.30
2022,03,29,09,04,6.40
2022,03,29,09,05,6.40
2022,03,29,09,06,6.40
2022,03,29,09,07,6.30
2022,03,29,09,08,6.30
2022,03,29,09,09,6.30
2022,03,29,09,10,6.30
2022,03,29,09,11,6.40
2022,03,29,09,12,6.40
2022,03,29,09,13,6.40
2022,03,29,09,14,6.40
2022,03,29,09,15,6.40
2022,03,29,09,16,6.40
2022,03,29,09,17,6.50
2022,03,29,09,18,6.50
2022,03,29,09,19,6.60
2022,03,29,09,20,6.60
2022,03,29,09,21,6.60
2022,03,29,09,22,6.70
2022,03,29,09,23,6.70
2022,03,29,09,24,6.80
2022,03,29,09,25,6.80
2022,03,29,09,26,6.80
2022,03,29,09,27,6.90
2022,03,29,09,28,6.90
2022,03,29,09,29,7.00
2022,03,29,09,30,7.10
2022,03,29,09,31,7.10
2022,03,29,09,32,7.20
2022,03,29,09,33,7.20
2022,03,29,09,34,7.20
2022,03,29,09,35,7.20
2022,03,29,09,36,7.20
2022,03,29,09,37,7.30
2022,03,29,09,38,7.30
2022,03,29,09,39,7.30
2022,03,29,09,40,7.30
2022,03,29,09,41,7.30
2022,03,29,09,42,7.30
2022,03,29,09,43,7.40
2022,03,29,09,44,7.40
2022,03,29,09,45,7.40
2022,03,29,09,46,7.50
2022,03,29,09,47,7.50
2022,03,29,09,48,7.50
2022,03,29,09,49,7.50
2022,03,29,09,50,7.50
2022,03,29,09,51,7.50
2022,03,29,09,52,7.60
2022,03,29,09,53,7.60
2022,03,29,09,54,7.60
2022,03,29,09,55,7.60
2022,03,29,09,56,7.70
2022,03,29,09,57,7.70
2022,03,29,09,58,7.70
2022,03,29,09,59,7.70
2022,03,29,10,00,7.70
2022,03,29,10,01,7.70
2022,03,29,10,02,7.70
2022,03,29,10,03,7.70
2022,03,29,10,04,7.70
2022,03,29,10,05,7.70
2022,03,29,10,06,7.70
2022,03,29,10,07,7.70
2022,03,29,10,08,7.70
2022,03,29,10,09,7.70
2022,03,29,10,10,7.70
2022,03,29,10,11,7.70
2022,03,29,10,12,7.70
2022,03,29,10,13,7.70
2022,03,29,10,14,7.80
2022,03,29,10,15,7.80
2022,03,29,10,16,7.80
2022,03,29,10,17,7.80
2022,03,29,10,18,7.80
2022,03,29,10,19,7.80
2022,03,29,10,20,7.80
2022,03,29,10,21,7.80
2022,03,29,10,22,7.80
2022,03,29,10,23,7.80
2022,03,29,10,24,7.90
2022,03,29,10,25,7.90
2022,03,29,10,26,7.90
2022,03,29,10,27,7.90
2022,03,29,10,28,7.90
2022,03,29,10,29,7.90
2022,03,29,10,30,8.00
2022,03,29,10,31,8.00
2022,03,29,10,32,8.00
2022,03,29,10,33,8.10
2022,03,29,10,34,8.10
2022,03,29,10,35,8.10
2022,03,29,10,36,8.10
2022,03,29,10,37,8.10
2022,03,29,10,38,8.10
2022,03,29,10,39,8.00
2022,03,29,10,40,8.00
2022,03,29,10,41,8.00
2022,03,29,10,42,8.10
2022,03,29,10,43,8.10
2022,03,29,10,44,8.10
2022,03,29,10,45,8.10
2022,03,29,10,46,8.20
2022,03,29,10,47,8.20
2022,03,29,10,48,8.20
2022,03,29,10,49,8.10
2022,03,29,10,50,8.10
2022,03,29,10,51,8.20
2022,03,29,10,52,8.20
2022,03,29,10,53,8.20
2022,03,29,10,54,8.20
2022,03,29,10,55,8.10
2022,03,29,10,56,8.10
2022,03,29,10,57,8.10
2022,03,29,10,58,8.10
2022,03,29,10,59,8.10
2022,03,29,11,00,8.10
2022,03,29,11,01,8.10
2022,03,29,11,02,8.10
2022,03,29,11,03,8.10
2022,03,29,11,04,8.10
2022,03,29,11,05,8.00
2022,03,29,11,06,8.10
2022,03,29,11,07,8.10
2022,03,29,11,08,8.00
2022,03,29,11,09,8.00
2022,03,29,11,10,7.90
2022,03,29,11,11,7.90
2022,03,29,11,12,7.90
2022,03,29,11,13,7.90
2022,03,29,11,14,7.90
2022,03,29,11,15,7.90
2022,03,29,11,16,7.90
2022,03,29,11,17,7.90
2022,03,29,11,18,7.90
2022,03,29,11,19,7.90
2022,03,29,11,20,8.00
2022,03,29,11,21,8.00
2022,03,29,11,22,8.00
2022,03,29,11,23,8.10
2022,03,29,11,24,8.00
2022,03,29,11,25,8.00
2022,03,29,11,26,8.00
2022,03,29,11,27,7.90
2022,03,29,11,28,7.90
2022,03,29,11,29,7.90
2022,03,29,11,30,7.90
2022,03,29,11,31,7.90
2022,03,29,11,32,8.00
2022,03,29,11,33,8.00
2022,03,29,11,34,8.00
2022,03,29,11,35,8.10
2022,03,29,11,36,8.10
2022,03,29,11,37,8.10
2022,03,29,11,38,8.10
2022,03,29,11,39,8.10
2022,03,29,11,40,8.10
2022,03,29,11,41,8.10
2022,03,29,11,42,8.20
2022,03,29,11,43,8.10
2022,03,29,11,44,8.10
2022,03,29,11,45,8.10
2022,03,29,11,46,8.20
2022,03,29,11,47,8.20
2022,03,29,11,48,8.20
2022,03,29,11,49,8.10
2022,03,29,11,50,8.10
2022,03,29,11,51,8.10
2022,03,29,11,52,8.10
2022,03,29,11,53,8.10
2022,03,29,11,54,8.10
2022,03,29,11,55,8.00
2022,03,29,11,56,8.00
2022,03,29,11,57,8.00
2022,03,29,11,58,8.00
2022,03,29,11,59,8.10
2022,03,29,12,00,8.10
2022,03,29,12,01,8.00
2022,03,29,12,02,8.00
2022,03,29,12,03,8.00
2022,03,29,12,04,8.00
2022,03,29,12,05,8.00
2022,03,29,12,06,8.00
2022,03,29,12,07,8.00
2022,03,29,12,08,8.10
2022,03,29,12,09,8.10
2022,03,29,12,10,8.10
2022,03,29,12,11,8.10
2022,03,29,12,12,8.10
2022,03,29,12,13,8.20
2022,03,29,12,14,8.20
2022,03,29,12,15,8.20
2022,03,29,12,16,8.20
2022,03,29,12,17,8.20
2022,03,29,12,18,8.20
2022,03,29,12,19,8.20
2022,03,29,12,20,8.20
2022,03,29,12,21,8.20
2022,03,29,12,22,8.20
2022,03,29,12,23,8.20
2022,03,29,12,24,8.10
2022,03,29,12,25,8.10
2022,03,29,12,26,8.10
2022,03,29,12,27,8.10
2022,03,29,12,28,8.10
2022,03,29,12,29,8.20
2022,03,29,12,30,8.20
2022,03,29,12,31,8.20
2022,03,29,12,32,8.20
2022,03,29,12,33,8.30
2022,03,29,12,34,8.30
2022,03,29,12,35,8.20
2022,03,29,12,36,8.20
2022,03,29,12,37,8.20
2022,03,29,12,38,8.20
2022,03,29,12,39,8.30
2022,03,29,12,40,8.30
2022,03,29,12,41,8.40
2022,03,29,12,42,8.40
2022,03,29,12,43,8.40
2022,03,29,12,44,8.50
2022,03,29,12,45,8.40
2022,03,29,12,46,8.40
2022,03,29,12,47,8.30
2022,03,29,12,48,8.30
2022,03,29,12,49,8.30
2022,03,29,12,50,8.20
2022,03,29,12,51,8.30
2022,03,29,12,52,8.30
2022,03,29,12,53,8.30
2022,03,29,12,54,8.30
2022,03,29,12,55,8.30
2022,03,29,12,56,8.30
2022,03,29,12,57,8.40
2022,03,29,12,58,8.40
2022,03,29,12,59,8.50
2022,03,29,13,00,8.50
2022,03,29,13,01,8.50
2022,03,29,13,02,8.50
2022,03,29,13,03,8.50
2022,03,29,13,04,8.50
2022,03,29,13,05,8.50
2022,03,29,13,06,8.50
2022,03,29,13,07,8.40
2022,03,29,13,08,8.50
2022,03,29,13,09,8.50
2022,03,29,13,10,8.50
2022,03,29,13,11,8.50
2022,03,29,13,12,8.60
2022,03,29,13,13,8.60
2022,03,29,13,14,8.60
2022,03,29,13,15,8.60
2022,03,29,13,16,8.60
2022,03,29,13,17,8.70
2022,03,29,13,18,8.70
2022,03,29,13,19,8.70
2022,03,29,13,20,8.70
2022,03,29,13,21,8.80
2022,03,29,13,22,8.80
2022,03,29,13,23,8.70
2022,03,29,13,24,8.70
2022,03,29,13,25,8.70
2022,03,29,13,26,8.70
2022,03,29,13,27,8.60
2022,03,29,13,28,8.60
2022,03,29,13,29,8.60
2022,03,29,13,30,8.60
2022,03,29,13,31,8.60
2022,03,29,13,32,8.50
2022,03,29,13,33,8.50
2022,03,29,13,34,8.50
2022,03,29,13,35,8.50
2022,03,29,13,36,8.60
2022,03,29,13,37,8.60
2022,03,29,13,38,8.60
2022,03,29,13,39,8.70
2022,03,29,13,40,8.70
2022,03,29,13,41,8.80
2022,03,29,13,42,8.90
2022,03,29,13,43,8.90
2022,03,29,13,44,8.90
2022,03,29,13,45,8.90
2022,03,29,13,46,8.90
2022,03,29,13,47,9.00
2022,03,29,13,48,9.10
2022,03,29,13,49,9.10
2022,03,29,13,50,9.10
2022,03,29,13,51,9.10
2022,03,29,13,52,9.10
2022,03,29,13,53,9.10
2022,03,29,13,54,9.10
2022,03,29,13,55,9.00
2022,03,29,13,56,8.90
2022,03,29,13,57,8.90
2022,03,29,13,58,8.90
2022,03,29,13,59,8.90
2022,03,29,14,00,8.90
2022,03,29,14,01,8.90
2022,03,29,14,02,8.90
2022,03,29,14,03,8.90
2022,03,29,14,04,9.00
2022,03,29,14,05,9.10
2022,03,29,14,06,9.10
2022,03,29,14,07,9.10
2022,03,29,14,08,9.10
2022,03,29,14,09,9.20
2022,03,29,14,10,9.20
2022,03,29,14,11,9.30
2022,03,29,14,12,9.30
2022,03,29,14,13,9.30
2022,03,29,14,14,9.30
2022,03,29,14,15,9.30
2022,03,29,14,16,9.40
2022,03,29,14,17,9.40
2022,03,29,14,18,9.50
2022,03,29,14,19,9.50
2022,03,29,14,20,9.50
2022,03,29,14,21,9.50
2022,03,29,14,22,9.50
2022,03,29,14,23,9.60
2022,03,29,14,24,9.60
2022,03,29,14,25,9.60
2022,03,29,14,26,9.60
2022,03,29,14,27,9.70
2022,03,29,14,28,9.70
2022,03,29,14,29,9.70
2022,03,29,14,30,9.80
2022,03,29,14,31,9.80
2022,03,29,14,32,9.80
2022,03,29,14,33,9.80
2022,03,29,14,34,9.70
2022,03,29,14,35,9.70
2022,03,29,14,36,9.70
2022,03,29,14,37,9.70
2022,03,29,14,38,9.70
2022,03,29,14,39,9.60
2022,03,29,14,40,9.60
2022,03,29,14,41,9.60
2022,03,29,14,42,9.60
2022,03,29,14,43,9.60
2022,03,29,14,44,9.60
2022,03,29,14,45,9.70
2022,03,29,14,46,9.70
2022,03,29,14,47,9.70
2022,03,29,14,48,9.70
2022,03,29,14,49,9.70
2022,03,29,14,50,9.70
2022,03,29,14,51,9.60
2022,03,29,14,52,9.60
2022,03,29,14,53,9.60
2022,03,29,14,54,9.60
2022,03,29,14,55,9.60
2022,03,29,14,56,9.60
2022,03,29,14,57,9.70
2022,03,29,14,58,9.70
2022,03,29,14,59,9.80
2022,03,29,15,00,9.90
2022,03,29,15,01,9.90
2022,03,29,15,02,10.00
2022,03,29,15,03,10.10
2022,03,29,15,04,10.10
2022,03,29,15,05,10.10
2022,03,29,15,06,10.10
2022,03,29,15,07,10.10
2022,03,29,15,08,10.10
2022,03,29,15,09,10.00
2022,03,29,15,10,10.00
2022,03,29,15,11,10.00
2022,03,29,15,12,10.10
2022,03,29,15,13,10.10
2022,03,29,15,14,10.10
2022,03,29,15,15,10.10
2022,03,29,15,16,10.20
2022,03,29,15,17,10.20
2022,03,29,15,18,10.20
2022,03,29,15,19,10.10
2022,03,29,15,20,10.10
2022,03,29,15,21,10.10
2022,03,29,15,22,10.10
2022,03,29,15,23,10.10
2022,03,29,15,24,10.10
2022,03,29,15,25,10.00
2022,03,29,15,26,10.00
2022,03,29,15,27,10.00
2022,03,29,15,28,10.00
2022,03,29,15,29,10.00
2022,03,29,15,30,10.00
2022,03,29,15,31,10.10
2022,03,29,15,32,10.10
2022,03,29,15,33,10.10
2022,03,29,15,34,10.10
2022,03,29,15,35,10.10
2022,03,29,15,36,10.10
2022,03,29,15,37,10.10
2022,03,29,15,38,10.10
2022,03,29,15,39,10.10
2022,03,29,15,40,10.10
2022,03,29,15,41,10.20
2022,03,29,15,42,10.30
2022,03,29,15,43,10.40
2022,03,29,15,44,10.40
2022,03,29,15,45,10.50
2022,03,29,15,46,10.60
2022,03,29,15,47,10.60
2022,03,29,15,48,10.60
2022,03,29,15,49,10.60
2022,03,29,15,50,10.70
2022,03,29,15,51,10.70
2022,03,29,15,52,10.70
2022,03,29,15,53,10.70
2022,03,29,15,54,10.70
2022,03,29,15,55,10.70
2022,03,29,15,56,10.70
2022,03,29,15,57,10.70
2022,03,29,15,58,10.80
2022,03,29,15,59,10.80
2022,03,29,16,00,10.80
2022,03,29,16,01,10.90
2022,03,29,16,02,10.90
2022,03,29,16,03,10.90
2022,03,29,16,04,10.90
2022,03,29,16,05,11.00
2022,03,29,16,06,11.00
2022,03,29,16,07,11.00
2022,03,29,16,08,11.00
2022,03,29,16,09,11.00
2022,03,29,16,10,11.00
2022,03,29,16,11,11.00
2022,03,29,16,12,11.00
2022,03,29,16,13,11.00
2022,03,29,16,14,11.00
2022,03,29,16,15,11.00
2022,03,29,16,16,11.00
2022,03,29,16,17,11.00
2022,03,29,16,18,11.00
2022,03,29,16,19,11.00
2022,03,29,16,20,11.00
2022,03,29,16,21,10.90
2022,03,29,16,22,10.90
2022,03,29,16,23,10.90
2022,03,29,16,24,10.90
2022,03,29,16,25,10.90
2022,03,29,16,26,10.90
2022,03,29,16,27,10.90
2022,03,29,16,28,10.80
2022,03,29,16,29,10.80
2022,03,29,16,30,10.80
2022,03,29,16,31,10.80
2022,03,29,16,32,10.80
2022,03,29,16,33,10.80
2022,03,29,16,34,10.80
2022,03,29,16,35,10.80
2022,03,29,16,36,10.80
2022,03,29,16,37,10.80
2022,03,29,16,38,10.80
2022,03,29,16,39,10.80
2022,03,29,16,40,10.80
2022,03,29,16,41,10.70
2022,03,29,16,42,10.80
2022,03,29,16,43,10.80
2022,03,29,16,44,10.80
2022,03,29,16,45,10.80
2022,03,29,16,46,10.80
2022,03,29,16,47,10.80
2022,03,29,16,48,10.80
2022,03,29,16,49,10.80
2022,03,29,16,50,10.80
2022,03,29,16,51,10.80
2022,03,29,16,52,10.80
2022,03,29,16,53,10.80
2022,03,29,16,54,10.80
2022,03,29,16,55,10.80
2022,03,29,16,56,10.80
2022,03,29,16,57,10.80
2022,03,29,16,58,10.90
2022,03,29,16,59,10.90
2022,03,29,17,00,10.90
2022,03,29,17,01,10.90
2022,03,29,17,02,10.90
2022,03,29,17,03,11.00
2022,03,29,17,04,11.00
2022,03,29,17,05,11.00
2022,03,29,17,06,11.00
2022,03,29,17,07,11.00
2022,03,29,17,08,11.00
2022,03,29,17,09,11.00
2022,03,29,17,10,11.00
2022,03,29,17,11,11.00
2022,03,29,17,12,11.00
2022,03,29,17,13,11.00
2022,03,29,17,14,11.00
2022,03,29,17,15,11.00
2022,03,29,17,16,11.00
2022,03,29,17,17,11.00
2022,03,29,17,18,10.90
2022,03,29,17,19,10.90
2022,03,29,17,20,10.90
2022,03,29,17,21,10.90
2022,03,29,17,22,10.90
2022,03,29,17,23,10.80
2022,03,29,17,24,10.80
2022,03,29,17,25,10.80
2022,03,29,17,26,10.80
2022,03,29,17,27,10.80
2022,03,29,17,28,10.70
2022,03,29,17,29,10.70
2022,03,29,17,30,10.70
2022,03,29,17,31,10.70
2022,03,29,17,32,10.70
2022,03,29,17,33,10.70
2022,03,29,17,34,10.70
2022,03,29,17,35,10.70
2022,03,29,17,36,10.70
2022,03,29,17,37,10.70
2022,03,29,17,38,10.70
2022,03,29,17,39,10.80
2022,03,29,17,40,10.80
2022,03,29,17,41,10.80
2022,03,29,17,42,10.80
2022,03,29,17,43,10.80
2022,03,29,17,44,10.80
2022,03,29,17,45,10.80
2022,03,29,17,46,10.80
2022,03,29,17,47,10.80
2022,03,29,17,48,10.80
2022,03,29,17,49,10.80
2022,03,29,17,50,10.80
2022,03,29,17,51,10.80
2022,03,29,17,52,10.80
2022,03,29,17,53,10.80
2022,03,29,17,54,10.80
2022,03,29,17,55,10.80
2022,03,29,17,56,10.80
2022,03,29,17,57,10.80
2022,03,29,17,58,10.80